Location: Igon
(43.1667°N, 0.2333°W)
Time: 14:41:14
(UTC+00:00)

ATLAS 3B R/B - Pass Details

Date: 29 November 2020
Orbit: 1013 x 1182 km, 63.8° (Epoch: 08 January)

Event Time Altitude Azimuth Distance (km) Brightness Sun altitude
Exits shadow 05:17:52 20° 327° (NNW) 2,280 4.0 -20.1°
Maximum altitude 05:22:59 83° 53° (NE) 1,123 2.8 -19.2°
Drops below altitude 10° 05:30:14 10° 143° (SE) 3,028 5.8 -17.9°
Sets 05:32:58 0° 144° (SE) 4,005 6.5 -17.4°
